Вернуться в каталог

STARLINK-36729

АктивенСвязьVLEO
NORAD 67905·PAYLOAD·🇺🇸 United States

Запущен Feb 22, 2026 с Vandenberg Space Force Base

Loading…

Ближайшие Пролёты (ближайшие 24 часа)

TLE

СвежийSource: CelesTrak SupGP

Эпоха: Sep 14, 2026, 21:40 UTC

1 67905C 26036B   26257.90326389  .00033484  00000+0  12131-2 0  2574
2 67905  42.9990 257.0672 0001199 263.3723 165.4266 15.27553808    12

Отслеживайте STARLINK-36729 в реальном времени с AllMySat

Download on the App Store